Year,Month,Day,Hour,Minute,Value (Times are PST for temperature in C)
2011,06,24,00,00,13.10
2011,06,24,00,01,13.10
2011,06,24,00,02,13.00
2011,06,24,00,03,13.10
2011,06,24,00,04,13.10
2011,06,24,00,05,13.00
2011,06,24,00,06,13.00
2011,06,24,00,07,13.10
2011,06,24,00,08,13.10
2011,06,24,00,09,13.10
2011,06,24,00,10,13.10
2011,06,24,00,11,13.10
2011,06,24,00,12,13.10
2011,06,24,00,13,13.10
2011,06,24,00,14,13.10
2011,06,24,00,15,13.10
2011,06,24,00,16,13.10
2011,06,24,00,17,13.10
2011,06,24,00,18,13.10
2011,06,24,00,19,13.20
2011,06,24,00,20,13.20
2011,06,24,00,21,13.20
2011,06,24,00,22,13.20
2011,06,24,00,23,13.20
2011,06,24,00,24,13.20
2011,06,24,00,25,13.20
2011,06,24,00,26,13.20
2011,06,24,00,27,13.20
2011,06,24,00,28,13.20
2011,06,24,00,29,13.20
2011,06,24,00,30,13.20
2011,06,24,00,31,13.20
2011,06,24,00,32,13.20
2011,06,24,00,33,13.10
2011,06,24,00,34,13.10
2011,06,24,00,35,13.10
2011,06,24,00,36,13.00
2011,06,24,00,37,12.90
2011,06,24,00,38,12.90
2011,06,24,00,39,12.90
2011,06,24,00,40,12.80
2011,06,24,00,41,12.80
2011,06,24,00,42,12.70
2011,06,24,00,43,12.70
2011,06,24,00,44,12.60
2011,06,24,00,45,12.60
2011,06,24,00,46,12.50
2011,06,24,00,47,12.50
2011,06,24,00,48,12.40
2011,06,24,00,49,12.40
2011,06,24,00,50,12.40
2011,06,24,00,51,12.40
2011,06,24,00,52,12.40
2011,06,24,00,53,12.40
2011,06,24,00,54,12.50
2011,06,24,00,55,12.50
2011,06,24,00,56,12.60
2011,06,24,00,57,12.60
2011,06,24,00,58,12.70
2011,06,24,00,59,12.70
2011,06,24,01,00,12.80
2011,06,24,01,01,12.80
2011,06,24,01,02,12.80
2011,06,24,01,03,12.90
2011,06,24,01,04,12.90
2011,06,24,01,05,13.00
2011,06,24,01,06,13.00
2011,06,24,01,07,13.10
2011,06,24,01,08,13.10
2011,06,24,01,09,13.10
2011,06,24,01,10,13.10
2011,06,24,01,11,13.10
2011,06,24,01,12,13.10
2011,06,24,01,13,13.10
2011,06,24,01,14,13.10
2011,06,24,01,15,13.10
2011,06,24,01,16,13.10
2011,06,24,01,17,13.10
2011,06,24,01,18,13.10
2011,06,24,01,19,13.00
2011,06,24,01,20,13.00
2011,06,24,01,21,12.90
2011,06,24,01,22,12.90
2011,06,24,01,23,12.80
2011,06,24,01,24,12.80
2011,06,24,01,25,12.80
2011,06,24,01,26,12.70
2011,06,24,01,27,12.70
2011,06,24,01,28,12.70
2011,06,24,01,29,12.60
2011,06,24,01,30,12.60
2011,06,24,01,31,12.50
2011,06,24,01,32,12.50
2011,06,24,01,33,12.50
2011,06,24,01,34,12.40
2011,06,24,01,35,12.40
2011,06,24,01,36,12.40
2011,06,24,01,37,12.40
2011,06,24,01,38,12.40
2011,06,24,01,39,12.30
2011,06,24,01,40,12.30
2011,06,24,01,41,12.30
2011,06,24,01,42,12.20
2011,06,24,01,43,12.20
2011,06,24,01,44,12.20
2011,06,24,01,45,12.10
2011,06,24,01,46,12.10
2011,06,24,01,47,12.10
2011,06,24,01,48,12.10
2011,06,24,01,49,12.00
2011,06,24,01,50,12.00
2011,06,24,01,51,12.00
2011,06,24,01,52,12.00
2011,06,24,01,53,12.00
2011,06,24,01,54,12.00
2011,06,24,01,55,12.10
2011,06,24,01,56,12.00
2011,06,24,01,57,12.00
2011,06,24,01,58,12.00
2011,06,24,01,59,12.00
2011,06,24,02,00,11.90
2011,06,24,02,01,11.90
2011,06,24,02,02,11.90
2011,06,24,02,03,11.80
2011,06,24,02,04,11.80
2011,06,24,02,05,11.80
2011,06,24,02,06,11.80
2011,06,24,02,07,11.80
2011,06,24,02,08,11.70
2011,06,24,02,09,11.70
2011,06,24,02,10,11.70
2011,06,24,02,11,11.60
2011,06,24,02,12,11.60
2011,06,24,02,13,11.50
2011,06,24,02,14,11.50
2011,06,24,02,15,11.40
2011,06,24,02,16,11.40
2011,06,24,02,17,11.40
2011,06,24,02,18,11.40
2011,06,24,02,19,11.40
2011,06,24,02,20,11.30
2011,06,24,02,21,11.30
2011,06,24,02,22,11.30
2011,06,24,02,23,11.30
2011,06,24,02,24,11.30
2011,06,24,02,25,11.30
2011,06,24,02,26,11.30
2011,06,24,02,27,11.30
2011,06,24,02,28,11.20
2011,06,24,02,29,11.20
2011,06,24,02,30,11.20
2011,06,24,02,31,11.10
2011,06,24,02,32,11.10
2011,06,24,02,33,11.00
2011,06,24,02,34,11.00
2011,06,24,02,35,10.90
2011,06,24,02,36,10.90
2011,06,24,02,37,10.90
2011,06,24,02,38,10.80
2011,06,24,02,39,10.80
2011,06,24,02,40,10.80
2011,06,24,02,41,10.70
2011,06,24,02,42,10.70
2011,06,24,02,43,10.70
2011,06,24,02,44,10.70
2011,06,24,02,45,10.60
2011,06,24,02,46,10.60
2011,06,24,02,47,10.60
2011,06,24,02,48,10.60
2011,06,24,02,49,10.60
2011,06,24,02,50,10.50
2011,06,24,02,51,10.50
2011,06,24,02,52,10.50
2011,06,24,02,53,10.50
2011,06,24,02,54,10.50
2011,06,24,02,55,10.40
2011,06,24,02,56,10.40
2011,06,24,02,57,10.30
2011,06,24,02,58,10.30
2011,06,24,02,59,10.20
2011,06,24,03,00,10.20
2011,06,24,03,01,10.20
2011,06,24,03,02,10.10
2011,06,24,03,06,10.00
2011,06,24,03,07,10.00
2011,06,24,03,08,9.90
2011,06,24,03,09,9.90
2011,06,24,03,10,9.90
2011,06,24,03,11,9.90
2011,06,24,03,12,9.80
2011,06,24,03,13,9.80
2011,06,24,03,14,9.80
2011,06,24,03,15,9.70
2011,06,24,03,16,9.70
2011,06,24,03,17,9.60
2011,06,24,03,18,9.60
2011,06,24,03,19,9.60
2011,06,24,03,20,9.50
2011,06,24,03,21,9.50
2011,06,24,03,22,9.40
2011,06,24,03,23,9.40
2011,06,24,03,24,9.40
2011,06,24,03,25,9.40
2011,06,24,03,26,9.40
2011,06,24,03,27,9.40
2011,06,24,03,28,9.30
2011,06,24,03,29,9.30
2011,06,24,03,30,9.30
2011,06,24,03,31,9.30
2011,06,24,03,32,9.30
2011,06,24,03,33,9.30
2011,06,24,03,34,9.30
2011,06,24,03,35,9.30
2011,06,24,03,36,9.30
2011,06,24,03,37,9.30
2011,06,24,03,38,9.30
2011,06,24,03,39,9.30
2011,06,24,03,40,9.30
2011,06,24,03,41,9.30
2011,06,24,03,42,9.30
2011,06,24,03,43,9.30
2011,06,24,03,44,9.30
2011,06,24,03,45,9.30
2011,06,24,03,46,9.30
2011,06,24,03,47,9.30
2011,06,24,03,48,9.30
2011,06,24,03,49,9.30
2011,06,24,03,50,9.30
2011,06,24,03,51,9.30
2011,06,24,03,52,9.30
2011,06,24,03,53,9.30
2011,06,24,03,54,9.30
2011,06,24,03,55,9.30
2011,06,24,03,56,9.30
2011,06,24,03,57,9.30
2011,06,24,03,58,9.30
2011,06,24,03,59,9.30
2011,06,24,04,00,9.30
2011,06,24,04,01,9.20
2011,06,24,04,02,9.20
2011,06,24,04,03,9.20
2011,06,24,04,04,9.10
2011,06,24,04,05,9.10
2011,06,24,04,06,9.10
2011,06,24,04,07,9.00
2011,06,24,04,08,9.00
2011,06,24,04,09,9.00
2011,06,24,04,10,8.90
2011,06,24,04,11,8.90
2011,06,24,04,12,8.90
2011,06,24,04,13,8.90
2011,06,24,04,14,8.90
2011,06,24,04,15,8.80
2011,06,24,04,16,8.80
2011,06,24,04,17,8.80
2011,06,24,04,18,8.80
2011,06,24,04,19,8.80
2011,06,24,04,20,8.80
2011,06,24,04,21,8.80
2011,06,24,04,22,8.90
2011,06,24,04,23,8.90
2011,06,24,04,24,8.90
2011,06,24,04,25,8.90
2011,06,24,04,26,8.90
2011,06,24,04,27,8.90
2011,06,24,04,28,8.90
2011,06,24,04,29,8.90
2011,06,24,04,30,8.90
2011,06,24,04,31,8.90
2011,06,24,04,32,8.90
2011,06,24,04,33,8.90
2011,06,24,04,34,8.90
2011,06,24,04,35,8.90
2011,06,24,04,36,8.90
2011,06,24,04,37,9.00
2011,06,24,04,38,9.00
2011,06,24,04,39,9.00
2011,06,24,04,40,9.10
2011,06,24,04,41,9.10
2011,06,24,04,42,9.20
2011,06,24,04,43,9.20
2011,06,24,04,44,9.20
2011,06,24,04,45,9.20
2011,06,24,04,46,9.20
2011,06,24,04,47,9.20
2011,06,24,04,48,9.20
2011,06,24,04,49,9.20
2011,06,24,04,50,9.20
2011,06,24,04,51,9.20
2011,06,24,04,52,9.20
2011,06,24,04,53,9.20
2011,06,24,04,54,9.20
2011,06,24,04,55,9.20
2011,06,24,04,56,9.20
2011,06,24,04,57,9.20
2011,06,24,04,58,9.20
2011,06,24,04,59,9.20
2011,06,24,05,00,9.20
2011,06,24,05,01,9.20
2011,06,24,05,02,9.20
2011,06,24,05,03,9.20
2011,06,24,05,04,9.20
2011,06,24,05,05,9.20
2011,06,24,05,06,9.20
2011,06,24,05,07,9.20
2011,06,24,05,08,9.20
2011,06,24,05,09,9.20
2011,06,24,05,10,9.20
2011,06,24,05,11,9.20
2011,06,24,05,12,9.20
2011,06,24,05,13,9.20
2011,06,24,05,14,9.20
2011,06,24,05,15,9.20
2011,06,24,05,16,9.20
2011,06,24,05,17,9.20
2011,06,24,05,18,9.20
2011,06,24,05,19,9.20
2011,06,24,05,20,9.20
2011,06,24,05,21,9.20
2011,06,24,05,22,9.20
2011,06,24,05,23,9.20
2011,06,24,05,24,9.20
2011,06,24,05,25,9.20
2011,06,24,05,26,9.20
2011,06,24,05,27,9.30
2011,06,24,05,28,9.30
2011,06,24,05,29,9.30
2011,06,24,05,30,9.30
2011,06,24,05,31,9.30
2011,06,24,05,32,9.30
2011,06,24,05,33,9.30
2011,06,24,05,34,9.30
2011,06,24,05,35,9.30
2011,06,24,05,36,9.30
2011,06,24,05,37,9.30
2011,06,24,05,38,9.30
2011,06,24,05,39,9.30
2011,06,24,05,40,9.30
2011,06,24,05,41,9.30
2011,06,24,05,42,9.30
2011,06,24,05,43,9.30
2011,06,24,05,44,9.40
2011,06,24,05,45,9.40
2011,06,24,05,46,9.40
2011,06,24,05,47,9.40
2011,06,24,05,48,9.40
2011,06,24,05,49,9.40
2011,06,24,05,50,9.40
2011,06,24,05,51,9.40
2011,06,24,05,52,9.50
2011,06,24,05,53,9.50
2011,06,24,05,54,9.50
2011,06,24,05,55,9.50
2011,06,24,05,56,9.60
2011,06,24,05,57,9.60
2011,06,24,05,58,9.60
2011,06,24,05,59,9.60
2011,06,24,06,00,9.60
2011,06,24,06,01,9.60
2011,06,24,06,02,9.60
2011,06,24,06,03,9.60
2011,06,24,06,04,9.60
2011,06,24,06,05,9.70
2011,06,24,06,06,9.70
2011,06,24,06,07,9.70
2011,06,24,06,08,9.70
2011,06,24,06,09,9.80
2011,06,24,06,10,9.80
2011,06,24,06,11,9.80
2011,06,24,06,12,9.80
2011,06,24,06,13,9.80
2011,06,24,06,14,9.90
2011,06,24,06,15,9.90
2011,06,24,06,16,9.90
2011,06,24,06,17,9.90
2011,06,24,06,18,10.00
2011,06,24,06,19,10.00
2011,06,24,06,20,10.00
2011,06,24,06,21,10.00
2011,06,24,06,22,10.00
2011,06,24,06,23,10.10
2011,06,24,06,24,10.10
2011,06,24,06,25,10.10
2011,06,24,06,26,10.10
2011,06,24,06,27,10.10
2011,06,24,06,28,10.20
2011,06,24,06,29,10.20
2011,06,24,06,30,10.20
2011,06,24,06,31,10.20
2011,06,24,06,32,10.30
2011,06,24,06,33,10.30
2011,06,24,06,34,10.30
2011,06,24,06,35,10.30
2011,06,24,06,36,10.40
2011,06,24,06,37,10.40
2011,06,24,06,38,10.40
2011,06,24,06,39,10.40
2011,06,24,06,40,10.50
2011,06,24,06,41,10.50
2011,06,24,06,42,10.50
2011,06,24,06,43,10.60
2011,06,24,06,44,10.60
2011,06,24,06,45,10.60
2011,06,24,06,46,10.70
2011,06,24,06,47,10.70
2011,06,24,06,48,10.70
2011,06,24,06,49,10.70
2011,06,24,06,50,10.80
2011,06,24,06,51,10.80
2011,06,24,06,52,10.80
2011,06,24,06,53,10.80
2011,06,24,06,54,10.90
2011,06,24,06,55,10.90
2011,06,24,06,56,10.90
2011,06,24,06,57,11.00
2011,06,24,06,58,11.10
2011,06,24,06,59,11.10
2011,06,24,07,00,11.10
2011,06,24,07,01,11.20
2011,06,24,07,02,11.20
2011,06,24,07,03,11.20
2011,06,24,07,04,11.30
2011,06,24,07,05,11.30
2011,06,24,07,06,11.30
2011,06,24,07,07,11.30
2011,06,24,07,08,11.30
2011,06,24,07,09,11.40
2011,06,24,07,10,11.40
2011,06,24,07,11,11.40
2011,06,24,07,12,11.40
2011,06,24,07,13,11.50
2011,06,24,07,14,11.50
2011,06,24,07,15,11.60
2011,06,24,07,16,11.60
2011,06,24,07,17,11.60
2011,06,24,07,18,11.70
2011,06,24,07,19,11.70
2011,06,24,07,20,11.80
2011,06,24,07,21,11.80
2011,06,24,07,22,11.80
2011,06,24,07,23,11.80
2011,06,24,07,24,11.90
2011,06,24,07,25,11.90
2011,06,24,07,26,11.90
2011,06,24,07,27,12.00
2011,06,24,07,28,12.10
2011,06,24,07,29,12.10
2011,06,24,07,30,12.10
2011,06,24,07,31,12.20
2011,06,24,07,32,12.20
2011,06,24,07,33,12.20
2011,06,24,07,34,12.30
2011,06,24,07,35,12.30
2011,06,24,07,36,12.30
2011,06,24,07,37,12.30
2011,06,24,07,38,12.30
2011,06,24,07,39,12.40
2011,06,24,07,40,12.40
2011,06,24,07,41,12.40
2011,06,24,07,42,12.40
2011,06,24,07,43,12.50
2011,06,24,07,44,12.50
2011,06,24,07,45,12.50
2011,06,24,07,46,12.60
2011,06,24,07,47,12.60
2011,06,24,07,48,12.60
2011,06,24,07,49,12.70
2011,06,24,07,50,12.70
2011,06,24,07,51,12.70
2011,06,24,07,52,12.70
2011,06,24,07,53,12.70
2011,06,24,07,54,12.80
2011,06,24,07,55,12.80
2011,06,24,07,56,12.80
2011,06,24,07,57,12.80
2011,06,24,07,58,12.80
2011,06,24,07,59,12.90
2011,06,24,08,00,12.90
2011,06,24,08,01,12.90
2011,06,24,08,02,13.00
2011,06,24,08,03,13.00
2011,06,24,08,04,13.10
2011,06,24,08,05,13.10
2011,06,24,08,06,13.20
2011,06,24,08,07,13.20
2011,06,24,08,08,13.30
2011,06,24,08,09,13.30
2011,06,24,08,10,13.40
2011,06,24,08,11,13.50
2011,06,24,08,12,13.50
2011,06,24,08,13,13.60
2011,06,24,08,14,13.60
2011,06,24,08,15,13.70
2011,06,24,08,16,13.80
2011,06,24,08,17,13.80
2011,06,24,08,18,13.90
2011,06,24,08,19,13.90
2011,06,24,08,20,14.00
2011,06,24,08,21,14.10
2011,06,24,08,22,14.20
2011,06,24,08,23,14.20
2011,06,24,08,24,14.20
2011,06,24,08,25,14.20
2011,06,24,08,26,14.20
2011,06,24,08,27,14.20
2011,06,24,08,28,14.20
2011,06,24,08,29,14.20
2011,06,24,08,30,14.20
2011,06,24,08,31,14.20
2011,06,24,08,32,14.20
2011,06,24,08,33,14.30
2011,06,24,08,34,14.30
2011,06,24,08,35,14.40
2011,06,24,08,36,14.40
2011,06,24,08,37,14.40
2011,06,24,08,38,14.50
2011,06,24,08,39,14.50
2011,06,24,08,40,14.60
2011,06,24,08,41,14.60
2011,06,24,08,42,14.60
2011,06,24,08,43,14.50
2011,06,24,08,44,14.50
2011,06,24,08,45,14.60
2011,06,24,08,46,14.60
2011,06,24,08,47,14.60
2011,06,24,08,48,14.60
2011,06,24,08,49,14.60
2011,06,24,08,50,14.60
2011,06,24,08,51,14.60
2011,06,24,08,52,14.60
2011,06,24,08,53,14.60
2011,06,24,08,54,14.60
2011,06,24,08,55,14.70
2011,06,24,08,56,14.80
2011,06,24,08,57,14.80
2011,06,24,08,58,14.80
2011,06,24,08,59,14.90
2011,06,24,09,00,14.90
2011,06,24,09,01,14.90
2011,06,24,09,02,14.80
2011,06,24,09,03,14.80
2011,06,24,09,04,14.80
2011,06,24,09,05,14.80
2011,06,24,09,06,14.80
2011,06,24,09,07,14.80
2011,06,24,09,08,14.80
2011,06,24,09,09,14.80
2011,06,24,09,10,14.80
2011,06,24,09,11,14.80
2011,06,24,09,12,14.80
2011,06,24,09,13,14.80
2011,06,24,09,14,14.80
2011,06,24,09,15,14.80
2011,06,24,09,16,14.80
2011,06,24,09,17,14.80
2011,06,24,09,18,14.80
2011,06,24,09,19,14.80
2011,06,24,09,20,14.80
2011,06,24,09,21,14.80
2011,06,24,09,22,14.90
2011,06,24,09,23,14.90
2011,06,24,09,24,15.00
2011,06,24,09,25,15.00
2011,06,24,09,26,15.00
2011,06,24,09,27,15.00
2011,06,24,09,28,15.00
2011,06,24,09,29,15.00
2011,06,24,09,30,15.10
2011,06,24,09,31,15.10
2011,06,24,09,32,15.10
2011,06,24,09,33,15.10
2011,06,24,09,34,15.10
2011,06,24,09,35,15.10
2011,06,24,09,36,15.10
2011,06,24,09,37,15.00
2011,06,24,09,38,15.00
2011,06,24,09,39,15.00
2011,06,24,09,40,15.00
2011,06,24,09,41,15.00
2011,06,24,09,42,15.00
2011,06,24,09,43,15.00
2011,06,24,09,44,15.00
2011,06,24,09,45,15.10
2011,06,24,09,46,15.10
2011,06,24,09,47,15.10
2011,06,24,09,48,15.10
2011,06,24,09,49,15.10
2011,06,24,09,50,15.20
2011,06,24,09,51,15.10
2011,06,24,09,52,15.20
2011,06,24,09,53,15.10
2011,06,24,09,54,15.20
2011,06,24,09,55,15.20
2011,06,24,09,56,15.20
2011,06,24,09,57,15.20
2011,06,24,09,58,15.20
2011,06,24,09,59,15.20
2011,06,24,10,00,15.20
2011,06,24,10,01,15.20
2011,06,24,10,02,15.20
2011,06,24,10,03,15.20
2011,06,24,10,04,15.20
2011,06,24,10,05,15.30
2011,06,24,10,06,15.30
2011,06,24,10,07,15.40
2011,06,24,10,08,15.50
2011,06,24,10,09,15.60
2011,06,24,10,10,15.60
2011,06,24,10,11,15.60
2011,06,24,10,12,15.70
2011,06,24,10,13,15.70
2011,06,24,10,14,15.70
2011,06,24,10,15,15.70
2011,06,24,10,16,15.70
2011,06,24,10,17,15.80
2011,06,24,10,18,15.70
2011,06,24,10,19,15.80
2011,06,24,10,20,15.80
2011,06,24,10,21,15.80
2011,06,24,10,22,15.80
2011,06,24,10,23,15.80
2011,06,24,10,24,15.80
2011,06,24,10,25,15.80
2011,06,24,10,26,15.90
2011,06,24,10,27,15.90
2011,06,24,10,28,15.90
2011,06,24,10,29,15.90
2011,06,24,10,30,15.90
2011,06,24,10,31,15.90
2011,06,24,10,32,15.80
2011,06,24,10,33,15.80
2011,06,24,10,34,15.80
2011,06,24,10,35,15.80
2011,06,24,10,36,15.70
2011,06,24,10,37,15.70
2011,06,24,10,38,15.70
2011,06,24,10,39,15.60
2011,06,24,10,40,15.60
2011,06,24,10,41,15.50
2011,06,24,10,42,15.40
2011,06,24,10,43,15.40
2011,06,24,10,44,15.40
2011,06,24,10,45,15.40
2011,06,24,10,46,15.40
2011,06,24,10,47,15.50
2011,06,24,10,48,15.50
2011,06,24,10,49,15.40
2011,06,24,10,50,15.40
2011,06,24,10,51,15.30
2011,06,24,10,52,15.20
2011,06,24,10,53,15.20
2011,06,24,10,54,15.10
2011,06,24,10,55,15.00
2011,06,24,10,56,15.00
2011,06,24,10,57,15.00
2011,06,24,10,58,15.00
2011,06,24,10,59,14.80
2011,06,24,11,00,14.60
2011,06,24,11,01,14.50
2011,06,24,11,02,14.40
2011,06,24,11,03,14.30
2011,06,24,11,04,14.20
2011,06,24,11,05,14.20
2011,06,24,11,06,14.10
2011,06,24,11,07,14.10
2011,06,24,11,08,14.10
2011,06,24,11,09,14.10
2011,06,24,11,10,14.10
2011,06,24,11,11,14.10
2011,06,24,11,12,14.10
2011,06,24,11,13,14.20
2011,06,24,11,14,14.20
2011,06,24,11,15,14.30
2011,06,24,11,16,14.30
2011,06,24,11,17,14.30
2011,06,24,11,18,14.40
2011,06,24,11,19,14.40
2011,06,24,11,20,14.40
2011,06,24,11,21,14.40
2011,06,24,11,22,14.40
2011,06,24,11,23,14.40
2011,06,24,11,24,14.40
2011,06,24,11,25,14.40
2011,06,24,11,26,14.40
2011,06,24,11,27,14.40
2011,06,24,11,28,14.50
2011,06,24,11,29,14.50
2011,06,24,11,30,14.60
2011,06,24,11,31,14.60
2011,06,24,11,32,14.60
2011,06,24,11,33,14.70
2011,06,24,11,34,14.70
2011,06,24,11,35,14.60
2011,06,24,11,36,14.60
2011,06,24,11,37,14.60
2011,06,24,11,38,14.70
2011,06,24,11,39,14.80
2011,06,24,11,40,14.80
2011,06,24,11,41,14.80
2011,06,24,11,42,14.80
2011,06,24,11,43,14.90
2011,06,24,11,44,15.00
2011,06,24,11,45,15.00
2011,06,24,11,46,15.10
2011,06,24,11,47,15.10
2011,06,24,11,48,15.20
2011,06,24,11,49,15.30
2011,06,24,11,50,15.40
2011,06,24,11,51,15.40
2011,06,24,11,52,15.50
2011,06,24,11,53,15.60
2011,06,24,11,54,15.70
2011,06,24,11,55,15.60
2011,06,24,11,56,15.70
2011,06,24,11,57,15.70
2011,06,24,11,58,15.70
2011,06,24,11,59,15.70
2011,06,24,12,00,15.60
2011,06,24,12,01,15.20
2011,06,24,12,02,15.00
2011,06,24,12,03,14.80
2011,06,24,12,04,14.60
2011,06,24,12,05,14.40
2011,06,24,12,06,14.30
2011,06,24,12,07,14.20
2011,06,24,12,08,14.20
2011,06,24,12,09,14.20
2011,06,24,12,10,14.20
2011,06,24,12,11,14.20
2011,06,24,12,12,14.20
2011,06,24,12,13,14.10
2011,06,24,12,14,14.10
2011,06,24,12,15,14.00
2011,06,24,12,16,14.00
2011,06,24,12,17,14.10
2011,06,24,12,18,14.10
2011,06,24,12,19,14.10
2011,06,24,12,20,14.00
2011,06,24,12,21,14.00
2011,06,24,12,22,14.00
2011,06,24,12,23,13.90
2011,06,24,12,24,13.90
2011,06,24,12,25,13.80
2011,06,24,12,26,13.80
2011,06,24,12,27,13.80
2011,06,24,12,28,13.80
2011,06,24,12,29,13.70
2011,06,24,12,30,13.60
2011,06,24,12,31,13.50
2011,06,24,12,32,13.40
2011,06,24,12,33,13.40
2011,06,24,12,34,13.40
2011,06,24,12,35,13.40
2011,06,24,12,36,13.50
2011,06,24,12,37,13.60
2011,06,24,12,38,13.70
2011,06,24,12,39,13.70
2011,06,24,12,40,13.90
2011,06,24,12,41,14.00
2011,06,24,12,42,14.10
2011,06,24,12,43,14.10
2011,06,24,12,44,14.20
2011,06,24,12,45,14.20
2011,06,24,12,46,14.30
2011,06,24,12,47,14.30
2011,06,24,12,48,14.30
2011,06,24,12,49,14.30
2011,06,24,12,50,14.50
2011,06,24,12,51,14.50
2011,06,24,12,52,14.60
2011,06,24,12,53,14.70
2011,06,24,12,54,14.70
2011,06,24,12,55,14.80
2011,06,24,12,56,14.90
2011,06,24,12,57,15.00
2011,06,24,12,58,15.00
2011,06,24,12,59,15.10
2011,06,24,13,00,15.20
2011,06,24,13,01,15.40
2011,06,24,13,02,15.50
2011,06,24,13,03,15.40
2011,06,24,13,04,15.30
2011,06,24,13,05,15.40
2011,06,24,13,06,15.40
2011,06,24,13,07,15.40
2011,06,24,13,08,15.40
2011,06,24,13,09,15.30
2011,06,24,13,10,15.20
2011,06,24,13,11,15.10
2011,06,24,13,12,15.10
2011,06,24,13,13,15.00
2011,06,24,13,14,15.00
2011,06,24,13,15,14.80
2011,06,24,13,16,14.60
2011,06,24,13,17,14.50
2011,06,24,13,18,14.30
2011,06,24,13,19,14.30
2011,06,24,13,20,14.20
2011,06,24,13,21,14.10
2011,06,24,13,22,14.10
2011,06,24,13,23,14.00
2011,06,24,13,24,13.90
2011,06,24,13,25,13.90
2011,06,24,13,26,13.80
2011,06,24,13,27,13.80
2011,06,24,13,28,13.80
2011,06,24,13,29,13.80
2011,06,24,13,30,13.70
2011,06,24,13,31,13.70
2011,06,24,13,32,13.70
2011,06,24,13,33,13.70
2011,06,24,13,34,13.60
2011,06,24,13,35,13.60
2011,06,24,13,36,13.60
2011,06,24,13,37,13.60
2011,06,24,13,38,13.60
2011,06,24,13,39,13.70
2011,06,24,13,40,13.70
2011,06,24,13,41,13.70
2011,06,24,13,42,13.70
2011,06,24,13,43,13.80
2011,06,24,13,44,13.80
2011,06,24,13,45,13.80
2011,06,24,13,46,13.80
2011,06,24,13,47,13.90
2011,06,24,13,48,13.80
2011,06,24,13,49,13.80
2011,06,24,13,50,13.80
2011,06,24,13,51,13.70
2011,06,24,13,52,13.70
2011,06,24,13,53,13.70
2011,06,24,13,54,13.60
2011,06,24,13,55,13.40
2011,06,24,13,56,13.30
2011,06,24,13,57,13.30
2011,06,24,13,58,13.20
2011,06,24,13,59,13.10
2011,06,24,14,00,13.00
2011,06,24,14,01,12.90
2011,06,24,14,02,12.80
2011,06,24,14,03,12.70
2011,06,24,14,04,12.60
2011,06,24,14,05,12.60
2011,06,24,14,06,12.60
2011,06,24,14,07,12.50
2011,06,24,14,08,12.50
2011,06,24,14,09,12.40
2011,06,24,14,10,12.30
2011,06,24,14,11,12.20
2011,06,24,14,12,12.20
2011,06,24,14,13,12.20
2011,06,24,14,14,12.20
2011,06,24,14,15,12.10
2011,06,24,14,16,12.10
2011,06,24,14,17,12.10
2011,06,24,14,18,12.10
2011,06,24,14,19,12.20
2011,06,24,14,20,12.20
2011,06,24,14,21,12.40
2011,06,24,14,22,12.50
2011,06,24,14,23,12.60
2011,06,24,14,24,12.80
2011,06,24,14,25,13.00
2011,06,24,14,26,13.10
2011,06,24,14,27,13.10
2011,06,24,14,28,13.20
2011,06,24,14,29,13.30
2011,06,24,14,30,13.30
2011,06,24,14,31,13.30
2011,06,24,14,32,13.40
2011,06,24,14,33,13.40
2011,06,24,14,34,13.50
2011,06,24,14,35,13.50
2011,06,24,14,36,13.60
2011,06,24,14,37,13.60
2011,06,24,14,38,13.80
2011,06,24,14,39,13.90
2011,06,24,14,40,14.00
2011,06,24,14,41,14.10
2011,06,24,14,42,14.00
2011,06,24,14,43,14.00
2011,06,24,14,44,14.00
2011,06,24,14,45,14.00
2011,06,24,14,46,13.90
2011,06,24,14,47,13.90
2011,06,24,14,48,13.90
2011,06,24,14,49,13.90
2011,06,24,14,50,13.90
2011,06,24,14,51,13.80
2011,06,24,14,52,13.80
2011,06,24,14,53,13.90
2011,06,24,14,54,13.90
2011,06,24,14,55,13.90
2011,06,24,14,56,14.00
2011,06,24,14,57,14.00
2011,06,24,14,58,14.10
2011,06,24,14,59,14.10
2011,06,24,15,00,14.10
2011,06,24,15,01,14.20
2011,06,24,15,02,14.20
2011,06,24,15,03,14.20
2011,06,24,15,04,14.30
2011,06,24,15,05,14.30
2011,06,24,15,06,14.30
2011,06,24,15,07,14.40
2011,06,24,15,08,14.40
2011,06,24,15,09,14.30
2011,06,24,15,10,14.30
2011,06,24,15,11,14.30
2011,06,24,15,12,14.30
2011,06,24,15,13,14.30
2011,06,24,15,14,14.30
2011,06,24,15,15,14.30
2011,06,24,15,16,14.30
2011,06,24,15,17,14.30
2011,06,24,15,18,14.30
2011,06,24,15,19,14.30
2011,06,24,15,20,14.30
2011,06,24,15,21,14.40
2011,06,24,15,22,14.40
2011,06,24,15,23,14.40
2011,06,24,15,24,14.40
2011,06,24,15,25,14.40
2011,06,24,15,26,14.50
2011,06,24,15,27,14.50
2011,06,24,15,28,14.50
2011,06,24,15,29,14.60
2011,06,24,15,30,14.70
2011,06,24,15,31,14.70
2011,06,24,15,32,14.70
2011,06,24,15,33,14.80
2011,06,24,15,34,14.90
2011,06,24,15,35,14.90
2011,06,24,15,36,15.00
2011,06,24,15,37,15.00
2011,06,24,15,38,15.00
2011,06,24,15,39,15.00
2011,06,24,15,40,15.00
2011,06,24,15,41,15.00
2011,06,24,15,42,14.90
2011,06,24,15,43,14.90
2011,06,24,15,44,14.80
2011,06,24,15,45,14.80
2011,06,24,15,46,14.80
2011,06,24,15,47,14.90
2011,06,24,15,48,14.90
2011,06,24,15,49,15.00
2011,06,24,15,50,15.00
2011,06,24,15,51,15.00
2011,06,24,15,52,15.00
2011,06,24,15,53,15.00
2011,06,24,15,54,15.00
2011,06,24,15,55,15.00
2011,06,24,15,56,15.00
2011,06,24,15,57,15.00
2011,06,24,15,58,15.00
2011,06,24,15,59,15.00
2011,06,24,16,00,15.00
2011,06,24,16,01,15.10
2011,06,24,16,02,15.20
2011,06,24,16,03,15.20
2011,06,24,16,04,15.10
2011,06,24,16,05,15.10
2011,06,24,16,06,15.20
2011,06,24,16,07,15.30
2011,06,24,16,08,15.30
2011,06,24,16,09,15.30
2011,06,24,16,10,15.40
2011,06,24,16,11,15.40
2011,06,24,16,12,15.50
2011,06,24,16,13,15.60
2011,06,24,16,14,15.60
2011,06,24,16,15,15.60
2011,06,24,16,16,15.60
2011,06,24,16,17,15.60
2011,06,24,16,18,15.70
2011,06,24,16,19,15.70
2011,06,24,16,20,15.70
2011,06,24,16,21,15.60
2011,06,24,16,22,15.60
2011,06,24,16,23,15.50
2011,06,24,16,24,15.40
2011,06,24,16,25,15.30
2011,06,24,16,26,15.30
2011,06,24,16,27,15.40
2011,06,24,16,28,15.50
2011,06,24,16,29,15.50
2011,06,24,16,30,15.50
2011,06,24,16,31,15.50
2011,06,24,16,32,15.50
2011,06,24,16,33,15.50
2011,06,24,16,34,15.60
2011,06,24,16,35,15.60
2011,06,24,16,36,15.50
2011,06,24,16,37,15.50
2011,06,24,16,38,15.40
2011,06,24,16,39,15.40
2011,06,24,16,40,15.30
2011,06,24,16,41,15.20
2011,06,24,16,42,15.10
2011,06,24,16,43,15.10
2011,06,24,16,44,15.10
2011,06,24,16,45,15.10
2011,06,24,16,46,15.10
2011,06,24,16,47,15.10
2011,06,24,16,48,15.30
2011,06,24,16,49,15.40
2011,06,24,16,50,15.50
2011,06,24,16,51,15.60
2011,06,24,16,52,15.70
2011,06,24,16,53,15.70
2011,06,24,16,54,15.80
2011,06,24,16,55,15.70
2011,06,24,16,56,15.70
2011,06,24,16,57,15.70
2011,06,24,16,58,15.70
2011,06,24,16,59,15.60
2011,06,24,17,00,15.60
2011,06,24,17,01,15.50
2011,06,24,17,02,15.40
2011,06,24,17,03,15.30
2011,06,24,17,04,15.30
2011,06,24,17,05,15.30
2011,06,24,17,06,15.20
2011,06,24,17,07,15.20
2011,06,24,17,08,15.10
2011,06,24,17,09,15.10
2011,06,24,17,10,15.00
2011,06,24,17,11,15.00
2011,06,24,17,12,15.00
2011,06,24,17,13,15.00
2011,06,24,17,14,15.00
2011,06,24,17,15,15.10
2011,06,24,17,16,15.10
2011,06,24,17,17,15.10
2011,06,24,17,18,15.10
2011,06,24,17,19,15.20
2011,06,24,17,20,15.20
2011,06,24,17,21,15.20
2011,06,24,17,22,15.20
2011,06,24,17,23,15.20
2011,06,24,17,24,15.10
2011,06,24,17,25,15.10
2011,06,24,17,26,15.10
2011,06,24,17,27,15.10
2011,06,24,17,28,15.10
2011,06,24,17,29,15.10
2011,06,24,17,30,15.00